Flag for U.S.A. Weather past 2 weeks in Cheyenne, Wyoming, U.S.A.

Now
36 °F

Clear.


Feels Like: 31 °F
Forecast: 32 / 56 °F
Wind: 6 mph from West

Location: Cheyenne Airport

Current Time: Oct 2, 2014 at 6:37:13 AM

Latest Report: Oct 2, 2014 at 5:53 AM


Visibility: 10 mi

Pressure: 30.10 "Hg

Humidity: 75%

Dew point: 29 °F

Location of CheyenneLocation

Historic Weather in Cheyenne — Graph

°F

Cheyenne temperature yesterday

Maximum temperature yesterday: 60 °F (at 11:53 AM)
Minimum temperature yesterday: 39 °F (at 3:53 PM)
Average temperature yesterday: 45 °F

Past Weeks' High & Low Weather Summary

 TemperatureHumidityPressure
High87 °F (Sep 18, 2:53 PM)100% (Sep 28, 11:53 PM)30.24 "Hg (Sep 28, 11:53 PM)
Low37 °F (Oct 2, 1:53 AM)11% (Sep 17, 1:53 PM)29.59 "Hg (Sep 30, 2:53 AM)
Average62 °F52%29.91 "Hg
* Reported Sep 17 4:53 AM — Oct 2 4:53 AM, Cheyenne, Weather by CustomWeather, © 2014

Note: Actual official high and low records may vary slightly from our data, if they occured in-between our weather recording intervals... More about our weather records

Advertising

Cheyenne weather history for previous 24 hours

 ConditionsComfort  
Time TempWeatherWind HumidityBarometerVisibility
4:53 AM
Oct 2
37 °FClear.9 mph79%30.09 "HgN/A
3:53 AM39 °FClear.13 mph76%30.08 "HgN/A
2:53 AM38 °FClear.9 mph83%30.06 "HgN/A
1:53 AM37 °FPassing clouds.5 mph93%30.06 "HgN/A
12:53 AM39 °FPassing clouds.6 mph89%30.01 "HgN/A
11:53 PM
Oct 1
39 °FPassing clouds.8 mph89%29.94 "HgN/A
10:53 PM40 °FPassing clouds.8 mph86%30.07 "HgN/A
9:53 PM40 °FMostly cloudy.12 mph86%29.96 "HgN/A
8:53 PM39 °FPassing clouds.6 mph93%29.96 "Hg10 mi
7:53 PM39 °FClear.9 mph86%29.95 "Hg10 mi
6:53 PM41 °FSunny.6 mph80%29.93 "HgN/A
5:53 PM42 °FPartly sunny.7 mph79%29.90 "HgN/A
4:53 PM40 °FOvercast.10 mph83%29.90 "Hg10 mi
3:53 PM39 °FLight rain. Overcast.15 mph82%29.94 "Hg5 mi
2:53 PM42 °FLight rain. Overcast.15 mph76%29.90 "Hg5 mi
1:53 PM43 °FRain. Cloudy.14 mph82%29.86 "Hg5 mi
12:53 PM49 °FLight rain. Overcast.17 mph64%29.81 "HgN/A
11:53 AM60 °FPassing clouds.3 mph36%29.75 "Hg10 mi
10:53 AMN/AScattered clouds.9 mphN/A29.92 "Hg10 mi
9:53 AM56 °FSunny.8 mph46%29.76 "Hg10 mi
8:53 AM53 °FSunny.7 mph48%29.77 "Hg10 mi
7:53 AM49 °FClear.10 mph55%29.77 "Hg10 mi
6:53 AM47 °FClear.7 mph66%29.77 "Hg10 mi
Weather by CustomWeather, © 2014

See weather overviewHow to use our weather pages